Radioactive Concentration measured by Seawater Radiation Monitor near Fukushima Daiichi Nuclear Power Station
Date,Time,Cs137(Bq/L),Cs134(Bq/L),Total β(Bq/L)
2018/09/08,00:00,0.11,ND,ND
2018/09/08,00:10,0.11,ND,ND
2018/09/08,00:20,0.17,ND,ND
2018/09/08,00:30,0.12,ND,ND
2018/09/08,00:40,0.13,ND,ND
2018/09/08,00:50,0.13,ND,ND
2018/09/08,01:00,0.14,ND,ND
2018/09/08,01:10,0.17,ND,ND
2018/09/08,01:20,0.15,ND,ND
2018/09/08,01:30,0.16,ND,ND
2018/09/08,01:40,0.15,ND,ND
2018/09/08,01:50,0.16,ND,ND
2018/09/08,02:00,0.15,ND,ND
2018/09/08,02:10,0.12,ND,ND
2018/09/08,02:20,0.13,ND,ND
2018/09/08,02:30,0.12,ND,ND
2018/09/08,02:40,0.13,ND,ND
2018/09/08,02:50,0.13,ND,ND
2018/09/08,03:00,0.13,ND,ND
2018/09/08,03:10,0.12,ND,ND
2018/09/08,03:20,0.13,ND,ND
2018/09/08,03:30,0.15,ND,ND
2018/09/08,03:40,0.16,ND,ND
2018/09/08,03:50,0.15,ND,ND
2018/09/08,04:00,0.16,ND,ND
2018/09/08,04:10,0.22,ND,ND
2018/09/08,04:20,0.20,ND,ND
2018/09/08,04:30,0.19,ND,ND
2018/09/08,04:40,0.20,ND,ND
2018/09/08,04:50,0.20,ND,ND
2018/09/08,05:00,0.18,ND,ND
2018/09/08,05:10,0.16,ND,ND
2018/09/08,05:20,0.17,ND,ND
2018/09/08,05:30,0.17,ND,ND
2018/09/08,05:40,0.14,ND,ND
2018/09/08,05:50,0.14,ND,ND
2018/09/08,06:00,0.14,ND,ND
2018/09/08,06:10,0.14,ND,ND
2018/09/08,06:20,0.15,ND,ND
2018/09/08,06:30,0.16,ND,ND
2018/09/08,06:40,0.17,ND,ND
2018/09/08,06:50,0.17,ND,ND
2018/09/08,07:00,0.18,ND,ND
2018/09/08,07:10,0.18,ND,ND
2018/09/08,07:20,0.17,ND,ND
2018/09/08,07:30,0.17,ND,ND
2018/09/08,07:40,0.18,ND,ND
2018/09/08,07:50,0.17,ND,ND
2018/09/08,08:00,0.17,ND,ND
2018/09/08,08:10,0.18,ND,ND
2018/09/08,08:20,0.17,ND,ND
2018/09/08,08:30,0.17,ND,ND
2018/09/08,08:40,0.17,ND,ND
2018/09/08,08:50,0.18,ND,ND
2018/09/08,09:00,0.18,ND,ND
2018/09/08,09:10,0.17,ND,ND
2018/09/08,09:20,0.18,ND,ND
2018/09/08,09:30,0.18,ND,ND
2018/09/08,09:40,0.17,ND,ND
2018/09/08,09:50,0.16,ND,ND
2018/09/08,10:00,0.17,ND,ND
2018/09/08,10:10,0.16,ND,ND
2018/09/08,10:20,0.16,ND,ND
2018/09/08,10:30,0.15,ND,ND
2018/09/08,10:40,0.14,ND,ND
2018/09/08,10:50,0.13,ND,ND
2018/09/08,11:00,0.12,ND,ND
2018/09/08,11:10,0.12,ND,ND
2018/09/08,11:20,0.14,ND,ND
2018/09/08,11:30,0.13,ND,ND
2018/09/08,11:40,0.14,ND,ND
2018/09/08,11:50,0.15,ND,ND
2018/09/08,12:00,0.15,ND,ND
2018/09/08,12:10,0.17,ND,ND
2018/09/08,12:20,0.15,ND,ND
2018/09/08,12:30,0.17,ND,ND
2018/09/08,12:40,0.13,ND,ND
2018/09/08,12:50,0.12,ND,ND
2018/09/08,13:00,0.13,ND,ND
2018/09/08,13:10,0.11,ND,ND
2018/09/08,13:20,0.12,ND,ND
2018/09/08,13:30,0.11,ND,ND
2018/09/08,13:40,0.12,ND,ND
2018/09/08,13:50,0.12,ND,ND
2018/09/08,14:00,0.12,ND,ND
2018/09/08,14:10,0.12,ND,ND
2018/09/08,14:20,0.11,ND,ND
2018/09/08,14:30,0.12,ND,ND
2018/09/08,14:40,0.13,ND,ND
2018/09/08,14:50,0.13,ND,ND
2018/09/08,15:00,0.11,ND,ND
2018/09/08,15:10,0.12,ND,ND
2018/09/08,15:20,0.14,ND,ND
2018/09/08,15:30,0.14,ND,ND
2018/09/08,15:40,0.16,ND,ND
2018/09/08,15:50,0.10,ND,ND
2018/09/08,16:00,0.10,ND,ND
2018/09/08,16:10,0.11,ND,ND
2018/09/08,16:20,0.074,ND,ND
2018/09/08,16:30,0.074,ND,ND
2018/09/08,16:40,0.070,ND,ND
2018/09/08,16:50,0.10,ND,ND
2018/09/08,17:00,0.091,ND,ND
2018/09/08,17:10,0.073,ND,ND
2018/09/08,17:20,0.083,ND,ND
2018/09/08,17:30,0.077,ND,ND
2018/09/08,17:40,0.083,ND,ND
2018/09/08,17:50,0.065,ND,ND
2018/09/08,18:00,0.082,ND,ND
2018/09/08,18:10,0.076,ND,ND
2018/09/08,18:20,0.12,ND,ND
2018/09/08,18:30,0.11,ND,ND
2018/09/08,18:40,0.098,ND,ND
2018/09/08,18:50,0.11,ND,ND
2018/09/08,19:00,0.066,ND,ND
2018/09/08,19:10,0.076,ND,ND
2018/09/08,19:20,0.076,ND,ND
2018/09/08,19:30,0.090,ND,ND
2018/09/08,19:40,0.11,ND,ND
2018/09/08,19:50,0.10,ND,ND
2018/09/08,20:00,0.10,ND,ND
2018/09/08,20:10,0.097,ND,ND
2018/09/08,20:20,0.10,ND,ND
2018/09/08,20:30,0.11,ND,ND
2018/09/08,20:40,0.14,ND,ND
2018/09/08,20:50,0.11,ND,ND
2018/09/08,21:00,0.12,ND,ND
2018/09/08,21:10,0.18,ND,ND
2018/09/08,21:20,0.14,ND,ND
2018/09/08,21:30,0.16,ND,ND
2018/09/08,21:40,0.14,ND,ND
2018/09/08,21:50,0.18,ND,ND
2018/09/08,22:00,0.17,ND,ND
2018/09/08,22:10,0.12,ND,ND
2018/09/08,22:20,0.13,ND,ND
2018/09/08,22:30,0.18,ND,ND
2018/09/08,22:40,0.16,ND,ND
2018/09/08,22:50,0.13,ND,ND
2018/09/08,23:00,0.14,ND,ND
2018/09/08,23:10,0.16,ND,ND
2018/09/08,23:20,0.16,ND,ND
2018/09/08,23:30,0.16,ND,ND
2018/09/08,23:40,0.19,ND,ND
2018/09/08,23:50,0.19,ND,ND
